Hourly Data Report for July 23, 2021

GORE BAY CLIMATE
ONTARIO
Current Station Operator: ECCC - MSC

45°53'00.000" N
82°34'00.000" W
188.60 m
6092920
71956
TZE

Download Data

Hourly Data (July 2021)
Hourly Data Report for July 23, 2021
TIME
LST
Temp Definition
°C
Dew Point Definition
°C
Rel Hum Definition
%
Precip. Amount Definition
mm

Wind Dir Definition
10's deg

Wind Spd Definition
km/h
Visibility Definition
km
Stn Press Definition
kPa
Hmdx Definition


Wind Chill Definition


Weather Definition


00:00 13.2 11.0 86 0.0 13 4   99.97     LegendNANA
01:00 12.6 10.7 88 0.0 11 6   99.96     LegendNANA
02:00 12.3 10.7 90 0.0 12 6   99.94     LegendNANA
03:00 12.4 11.1 91 0.0 11 7   99.94     LegendNANA
04:00 11.8 10.5 92 0.0 8 4   99.94     LegendNANA
05:00 12.3 11.2 93 0.0 8 8   99.93     LegendNANA
06:00 13.1 11.5 90 0.0 12 10   99.93     LegendNANA
07:00 16.8 14.3 85 0.0 12 5   99.97     LegendNANA
08:00 18.9 13.9 73 0.0 15 12   99.98     LegendNANA
09:00 20.6 14.8 69 0.0 18 10   100.00     LegendNANA
10:00 22.1 14.3 61 0.0 18 11   99.96 26   LegendNANA
11:00 22.8 12.2 51 0.0 15 15   99.92 25   LegendNANA
12:00 23.6 13.5 53 0.0 19 17   99.88 27   LegendNANA
13:00 23.2 11.9 49 0.0 19 22   99.87 25   LegendNANA
14:00 23.3 12.3 50 0.0 19 22   99.82 26   LegendNANA
15:00 23.7 11.4 46 0.0 19 19   99.78 26   LegendNANA
16:00 23.5 11.1 46 0.0 17 19   99.72 25   LegendNANA
17:00 22.6 11.9 51 0.0 17 21   99.67 25   LegendNANA
18:00 22.1 11.3 50 0.0 16 18   99.58     LegendNANA
19:00 21.0 11.7 55 0.0 17 18   99.57     LegendNANA
20:00 19.9 12.3 62 0.0 16 16   99.55     LegendNANA
21:00 19.6 12.3 63 0.0 16 14   99.57     LegendNANA
22:00 19.6 12.0 62 0.0 15 16   99.46     LegendNANA
23:00 19.3 12.3 64 0.0 16 18   99.45     LegendNANA

Notes on Data Quality.

Legend

  • E = Estimated
  • M = Missing
  • NA = Not Available*
  • [empty] = Indicates an unobserved value
Date modified: